SIRION PATHFINDER-2

Last updated on Mon Sep 21 2026 00:03:44 GMT+0000 (Coordinated Universal Time)

1 43759U 18099B 26262.37305856 .00002637 00000+0 14377-3 0 9992 2 43759 97.4163 309.1879 0007939 343.9211 16.1769 15.15221255426885
UTC large
Height (km)
Speed (km/s)
/
Latitude / Longitude
Inclination (degrees)
Orbital Period (minutes)
Azimuth
Elevation
Range (km)
Doppler Factor

Next 0 passes for location: London (51.5072 / 0.1276)

No passes found over London.
SIRION PATHFINDER-2